Regional Weather Roundup
Issued by NWS

Home | Current Version | Previous Version | Text Only | Print | Product List | Glossary Off
Versions: 1 2 3 4 5 6 7 8 9 10 11 12 13 14 15 16 17 18 19 20 21 22 23 24 25 26 27 28 29 30 31 32 33 34 35 36 37 38 39 40 41 42 43 44 45 46 47 48 49 50

000
ASUS43 KDMX 290407
RWRIA

WEATHER ROUNDUP FOR IOWA
NATIONAL WEATHER SERVICE DES MOINES IA
1100 PM CDT FRI AUG 28 2015

NOTE: "FAIR" INDICATES FEW OR NO CLOUDS BELOW 12,000 FEET WITH NO
SIGNIFICANT WEATHER AND/OR OBSTRUCTIONS TO VISIBILITY.

* - THESE STATIONS ARE NOT NWS STATIONS...THUS NOT UNDER NWS
QUALITY CONTROL.  THEY ALSO DO NOT REPORT WEATHER SUCH
AS PRECIPITATION OR FOG.

IAZ001>003-012>014-020>022-031>034-043>046-290500-
   NORTHWEST IOWA

CITY           SKY/WX    TMP DP  RH WIND       PRES   REMARKS
CARROLL *      CLOUDY    61  61 100 N12       29.95S FOG
CHEROKEE *     CLOUDY    61  59  94 N9        30.00R
DENISON *      CLOUDY    61  61 100 NE7G15    29.94S FOG
LE MARS *      CLOUDY    61  59  94 N7        30.02S
ORANGE CITY *  CLOUDY    61  57  88 CALM      30.02S
SHELDON *      CLOUDY    59  59 100 NE5       30.00F
SIOUX CITY     CLOUDY    63  58  83 N5        30.00R
SPENCER        CLOUDY    60  56  86 NE7       30.01S
STORM LAKE *   CLOUDY    59  59 100 NE10      29.99S
$$

IAZ055>058-069>071-079>083-090>094-290500-
   SOUTHWEST IOWA

CITY           SKY/WX    TMP DP  RH WIND       PRES   REMARKS
ATLANTIC *     CLOUDY    66  66 100 N10       29.94R FOG
AUDUBON *      CLOUDY    64  61  88 N8        29.96R FOG
CLARINDA *     CLOUDY    70  68  94 NW3       29.95R
COUNCIL BLFS * CLOUDY    63  63 100 N12       29.96S FOG
CRESTON *      CLOUDY    70  70 100 CALM      29.94R FOG
HARLAN  *      CLOUDY    64 N/A N/A N10       29.98R
LAMONI         CLOUDY    71  67  87 S9        29.93S
RED OAK *      CLOUDY    68  66  94 NW8       29.94S
SHENANDOAH *   CLOUDY    68  66  94 NW6       29.95R
$$

IAZ047>049-059>061-072>074-084-290500-
   CENTRAL IOWA

CITY           SKY/WX    TMP DP  RH WIND       PRES   REMARKS
AMES           CLOUDY    68  68 100 S5        29.91S FOG
ANKENY *       CLOUDY    68  68 100 CALM      29.90S
CHARITON *     CLOUDY    70  66  88 S7        29.93R
DES MOINES     MOCLDY    71  67  87 SE9       29.90R
GRINNELL*      CLOUDY    64  64 100 SE6       29.94R
KNOXVILLE *    CLOUDY    70  66  88 S8G14     29.91S
MARSHALLTOWN   CLOUDY    66  64  93 SE9       29.91S
PELLA *        MOCLDY    70  70 100 S5        29.94S
PERRY *        CLOUDY    66  64  94 N8        29.92S FOG
$$

IAZ004>006-015-016-023>025-035-036-290500-
   NORTH CENTRAL IOWA

CITY           SKY/WX    TMP DP  RH WIND       PRES   REMARKS
ALGONA *       CLOUDY    61  59  94 NE8       29.98F
CLARION *      CLOUDY    61  59  94 NE8       29.95S
ESTHERVILLE    CLOUDY    58  57  97 NE6       30.00F
FORT DODGE *   CLOUDY    61  57  88 N7        29.96S
MASON CITY     CLOUDY    60  59  96 E10       29.97F
FOREST CITY *  CLOUDY    59  59 100 NE6       29.97F
IOWA FALLS *   DRIZZLE   64  63  94 NE6       29.94S
$$

IAZ007>011-017>019-026>030-037>042-050>054-066-290500-
   NORTHEAST IOWA

CITY           SKY/WX    TMP DP  RH WIND       PRES   REMARKS
CEDAR RAPIDS   TSTM      65  65 100 SE8       29.95R
CHARLES CITY * CLOUDY    61  61 100 E14       29.97F FOG
CLINTON *      CLOUDY    66  64  94 E7        30.04F
DECORAH *      CLOUDY    59  59 100 E13G18    29.99F FOG
DUBUQUE        LGT RAIN  64  32  30 SE21G31   29.97F
MONTICELLO *   LGT RAIN  66  64  94 SE13      29.96S
OELWEIN *      LGT RAIN  64  64 100 SE6       29.96S
WATERLOO       CLOUDY    66  64  93 S8        29.92S
$$

IAZ064-065-067-068-078-290500-
   EAST CENTRAL IOWA

CITY           SKY/WX    TMP DP  RH WIND       PRES   REMARKS
DAVENPORT      RAIN      66  64  93 E3        30.01F FOG
IOWA CITY      LGT RAIN  66  65  96 SE9       29.97S
MT. PLEASANT * CLOUDY    72  61  68 SE7       29.97S
MUSCATINE *    CLOUDY    68  64  88 SE8       29.97F
QUAD CITIES    LGT RAIN  67  64  90 SE9       30.01S
$$

IAZ062-063-075>077-085>089-095>099-290500-
   SOUTHEAST IOWA

CITY           SKY/WX    TMP DP  RH WIND       PRES   REMARKS
BURLINGTON     CLOUDY    70  63  78 SE10      29.98S
FAIRFIELD *    CLOUDY    68  63  83 SE9       29.95S
FORT MADISON * CLOUDY    70  63  78 SE6       29.98S
KEOKUK *       CLOUDY    72  64  78 S8        29.97R
OSKALOOSA *    HVY RAIN  66  64  94 SE5       29.95R
CENTERVILLE *  MOCLDY    70  66  88 S8        29.96F
OTTUMWA        CLOUDY    70  66  87 S6        29.93R
WASHINGTON *     N/A    N/A N/A N/A MISG        N/A
$$

ABBREVIATIONS USED IN REMARKS
   TC - TEMPERATURES IN CELSIUS
  WCI - WIND CHILL INDEX
   HX - HEAT INDEX
  VSB - VISIBILITY
$$



USA.gov is the U.S. government's official web portal to all federal, state and local government web resources and services.